#timestamp,LO_Frequency,Hit,StdDev 
1589112995.3,286046985.8,P
1589113015.2,286046988.3,P
1589113035.0,286046988.3,P
1589113035.9,286046988.3,Y
1589113055.7,286046998.6,P
1589113075.6,286046998.3,N
1589113095.4,286046998.9,N
1589113115.3,286046999.5,N
1589113135.1,286046997.4,N
1589113136.0,286046997.4,N
1589113155.8,286046997.3,N
1589113175.7,286046997.4,N
1589113195.5,286046995.0,N
1589113215.4,286046995.2,N
1589113235.2,286046995.4,N
1589113255.0,286046996.4,N
1589113255.9,286046996.4,N
1589113275.8,286046993.8,N
1589113295.6,286046994.0,N
1589113315.4,286046994.3,N
1589113335.3,286046993.0,N
1589113355.1,286046991.9,N
1589113375.9,286046992.8,N
1589113395.7,286046992.8,N
1589113415.5,286046992.8,N
1589113435.4,286046992.8,N
1589113455.2,286046992.8,N
1589113475.0,286046990.1,Y
1589113476.0,286046990.1,P
1589113495.8,286046995.3,N
1589113515.6,286046995.0,N
1589113535.5,286046995.6,N
1589113555.3,286046996.3,N
1589113575.1,286046995.8,N
1589113595.9,286046996.3,N
1589113615.7,286046993.8,Y
1589113635.6,286046998.4,P
1589113655.4,286046998.1,N
1589113675.2,286046999.3,N
1589113695.1,286046998.6,N
1589113696.0,286046998.6,N
1589113715.8,286046998.8,N
1589113735.7,286046999.3,N
1589113755.5,286046996.8,N
1589113775.3,286046997.5,N
1589113795.2,286046997.1,N
1589113815.0,286046996.9,N
1589113815.9,286046996.9,N
1589113835.8,286046996.8,N
1589113855.6,286046997.5,N
1589113875.4,286046997.5,N
1589113895.3,286046995.7,Y
1589113915.1,286046999.3,P
1589113935.8,286046999.4,N
1589113955.7,286046997.0,P
1589113975.5,286046996.9,Y
1589113995.4,286046999.5,P
1589114015.2,286046999.6,N
1589114035.0,286046999.6,N
1589114035.9,286046999.6,N
1589114055.8,286046996.9,Y
1589114075.6,286046999.4,P
1589114095.5,286046996.6,P
1589114115.3,286046999.5,N
1589114135.1,286046997.8,N
1589114155.9,286046997.2,N
1589114175.7,286046995.0,Y
1589114195.5,286046999.5,P
1589114215.4,286046999.1,N
1589114235.2,286046996.6,P
1589114255.1,286046999.6,N
1589114256.0,286046999.6,N
1589114275.8,286046999.1,N
1589114295.6,286046999.6,N
1589114315.5,286046997.1,Y
1589114335.3,286046999.1,P
1589114355.1,286046996.9,P
1589114375.9,286046996.5,P
1589114395.7,286046996.8,N
1589114415.6,286046996.8,N
1589114435.4,286046997.7,N
1589114455.2,286046994.9,Y
1589114475.1,286046998.3,P
1589114476.0,286046998.3,P
1589114495.8,286046999.5,N
1589114515.7,286046997.1,Y
1589114535.5,286046999.0,P
1589114555.3,286046996.7,P
1589114575.2,286046996.9,P
1589114595.0,286046997.2,N
1589114595.9,286046997.2,Y
1589114615.8,286046998.6,P
1589114635.6,286046998.4,P
1589114655.4,286046999.4,N
1589114675.3,286046999.1,N
1589114695.1,286046997.1,Y
1589114715.8,286046999.3,P
1589114735.7,286046998.8,P
1589114755.5,286046999.5,N
1589114775.4,286046997.2,Y
1589114795.2,286046996.5,P
1589114815.0,286046996.8,N
1589114815.9,286046996.8,N
1589114835.8,286046997.9,N
1589114855.6,286046996.8,Y
1589114875.4,286046998.3,P
1589114895.3,286046999.0,N
1589114915.1,286046999.1,N
1589114935.9,286046999.3,N
1589114955.7,286046999.4,N
1589114975.5,286046996.7,Y
1589114995.4,286046998.7,P
1589115015.2,286046996.5,P
1589115035.0,286046996.7,P
1589115036.0,286046996.7,Y
1589115055.8,286046998.6,P
1589115075.6,286046998.2,P
1589115095.5,286046999.0,N
1589115115.3,286046998.9,N
1589115135.1,286046999.5,N
1589115155.9,286046998.0,Y
1589115175.7,286046999.1,P
1589115195.6,286046996.6,P
1589115215.4,286046999.1,N
1589115235.2,286046997.0,N
1589115255.1,286046994.9,Y
1589115256.0,286046994.9,P
1589115275.8,286046998.3,N
1589115295.7,286046999.3,N
1589115315.5,286046999.5,N
1589115335.3,286046999.2,N
1589115355.2,286046999.4,N
1589115375.9,286046999.1,N
1589115395.7,286046997.2,N
1589115415.6,286046994.9,Y
1589115435.4,286046999.5,P
1589115455.3,286046999.6,N
1589115475.1,286046999.6,N
1589115476.0,286046999.6,N
1589115495.8,286046999.6,N
1589115515.7,286046999.3,N
1589115535.5,286046996.9,Y
1589115555.3,286046996.8,P
1589115575.2,286046997.7,N
1589115595.0,286046996.8,P
1589115595.9,286046996.8,Y
